LFOTLFMU

Guest
Details From LFOT - Tours Val De Loire Ab
To LFMU - Béziers Vias
Flight Number -
Tags Generated
Created
Modified
Stats Distance 270 nm / 501 km
Max Altitude 0 ft / 0 m
Waypoints 3
Social Downloads 1
Likes 0
Share VATSIM

Download

Looking for another format? Having issues loading an existing format? Contact us
Advertisement - Login to hide

Notes

Generated

Route

LFOT BOLSA LFMU

ID Type Via Altitude Latitude Longitude Leg Dist Tot Dist Heading (true) Name
O LFOT APT - 0 ft / 0 m 47.42722˚ 0.72658˚ - 0 nm - Tours Val De Loire AB
BOLSA FIX - 0 ft / 0 m 43.33408˚ 3.31508˚ 268 nm 268 nm 155° / 157° -
O LFMU APT - 0 ft / 0 m 43.32402˚ 3.34239˚ 1 nm 270 nm 117° / 117° -

Altitude Profile

Advertisement - Login to hide

Weather


0- 5 10 15 20 25 30 35+ Temperature / ° C

Clouds and Precipitation
Forecast for 2018-05-21 00:00 UTC. Updated 3 hours ago

Ground ~20,000 ft ~40,000 ft Winds

LFOT

Details ICAO LFOT (TUF)
Name Tours Val De Loire AB
Region France
Timezone Europe/Paris (UTC+2.0)
Stats Elevation 356 ft / 109 m (AMSL)
Location 47.432974° 0.728402°
Runways 2
Magnetic Variation 0.249° E

METAR

LFOT 210200Z AUTO 05003KT 360V070 CAVOK 11/09 Q1014 NOSIG

Decode

TAF

TAF LFOT 202300Z 2100/2124 06008KT CAVOK BECMG 2110/2112 VRB03KT TEMPO 2112/2118 SHRA SCT050TCU PROB40 TEMPO 2114/2117 21012G30KT TSRA SCT060CB

Decode

Departure Runways

ID Width Length Bearing (true) Bearing (mag) Surface Threshold Offset Overrun Length
02 148 ft / 45 m 7,891 ft / 2,405 m 15.22° 14.97° Concrete 0 ft / 0 m 968 ft / 295 m
02R 197 ft / 60 m 4,925 ft / 1,501 m 15.24° 14.99° Grass 0 ft / 0 m 0 ft / 0 m
20 148 ft / 45 m 7,891 ft / 2,405 m 195.22° 194.97° Concrete 0 ft / 0 m 393 ft / 120 m
20L 197 ft / 60 m 4,925 ft / 1,501 m 195.24° 194.99° Grass 0 ft / 0 m 0 ft / 0 m

LFMU

Details ICAO LFMU (BZR)
Name Beziers Vias
Region France
Timezone Europe/Paris (UTC+2.0)
Stats Elevation 54 ft / 16 m (AMSL)
Location 43.323422° 3.353573°
Runways 1
Magnetic Variation 1.150° E

METAR

LFMU 210200Z AUTO 34002KT CAVOK 13/11 Q1013

Decode

TAF

TAF LFMU 202030Z 2020/2115 CNL

Decode

Destination Runways

ID Width Length Bearing (true) Bearing (mag) Surface Threshold Offset Overrun Length
10 115 ft / 35 m 5,955 ft / 1,815 m 94.20° 93.05° Asphalt 459 ft / 140 m 0 ft / 0 m
28 115 ft / 35 m 5,955 ft / 1,815 m 274.22° 273.07° Asphalt 0 ft / 0 m 0 ft / 0 m

Approach Navaids

Runway Type Ident Frequency Range Bearing (true) Bearing (mag) Slope Elevation
10 Localiser ZR 109.35 MHz 18 nm / 33 km 94.52° 93.37° - 50 ft / 15 m (AMSL)
10 Glidescope ZR 109.35 MHz 10 nm / 19 km 94.21° 93.06° 3.00° 92 ft / 28 m (AMSL)
10 DME ZR 109.35 MHz 18 nm / 33 km - - - 92 ft / 28 m (AMSL)